When you browse on this site, cookies collect data to enhance your experience and personalize the content and advertising you see.
Visit our Privacy Policy to learn more. By continuing to use the site, you agree to this use of cookies and data.
  • In Austria
  • List of Countries
  • For 7 days
  • Water Temperature
  • Satellite Maps
  • Weather Map
  • News
  • Weather Widgets
  • user-avatar
    Login

    Hourly Weather El Guna

    Today, 21 November, Wednesday

    Time Temperature Precipitation Wind Pressure Humidity
    00:00 +20°C° 0 mm 2 mps 736 mmHg 40%
    01:00 +20°C° 0 mm 2 mps 736 mmHg 40%
    02:00 +20°C° 0 mm 2 mps 736 mmHg 40%
    03:00 +19°C° 0 mm 2 mps 735 mmHg 41%
    04:00 +19°C° 0 mm 2 mps 735 mmHg 42%
    05:00 +19°C° 0 mm 2 mps 735 mmHg 43%
    06:00 +20°C° 0 mm 2 mps 736 mmHg 40%
    07:00 +21°C° 0 mm 2 mps 736 mmHg 38%
    08:00 +24°C° 0 mm 3 mps 736 mmHg 36%
    09:00 +25°C° 0 mm 3 mps 736 mmHg 33%
    10:00 +27°C° 0 mm 2 mps 736 mmHg 30%
    11:00 +28°C° 0 mm 2 mps 736 mmHg 27%
    12:00 +28°C° 0 mm 3 mps 736 mmHg 26%
    13:00 +29°C° 0 mm 3 mps 735 mmHg 25%
    14:00 +29°C° 0 mm 3 mps 735 mmHg 24%
    15:00 +28°C° 0 mm 3 mps 734 mmHg 28%
    16:00 +27°C° 0 mm 3 mps 734 mmHg 31%
    17:00 +26°C° 0 mm 3 mps 734 mmHg 35%
    18:00 +26°C° 0 mm 3 mps 734 mmHg 38%
    19:00 +25°C° 0 mm 3 mps 734 mmHg 40%
    20:00 +24°C° 0 mm 3 mps 735 mmHg 43%
    21:00 +24°C° 0 mm 3 mps 735 mmHg 42%
    22:00 +24°C° 0 mm 3 mps 734 mmHg 41%
    23:00 +23°C° 0 mm 2 mps 734 mmHg 40%

    Tomorrow, 22 November, Thursday

    Time Temperature Precipitation Wind Pressure Humidity
    00:00 +23°C° 0 mm 2 mps 734 mmHg 39%
    01:00 +23°C° 0 mm 2 mps 734 mmHg 37%
    02:00 +23°C° 0 mm 2 mps 734 mmHg 36%
    03:00 +21°C° 0 mm 2 mps 733 mmHg 36%
    04:00 +21°C° 0 mm 3 mps 733 mmHg 36%
    05:00 +21°C° 0 mm 3 mps 733 mmHg 37%
    06:00 +21°C° 0 mm 3 mps 733 mmHg 34%
    07:00 +22°C° 0 mm 3 mps 734 mmHg 32%
    08:00 +24°C° 0 mm 2 mps 734 mmHg 29%
    09:00 +25°C° 0 mm 3 mps 734 mmHg 26%
    10:00 +27°C° 0 mm 3 mps 734 mmHg 23%
    11:00 +28°C° 0 mm 4 mps 734 mmHg 20%
    12:00 +28°C° 0 mm 4 mps 733 mmHg 20%
    13:00 +29°C° 0 mm 4 mps 733 mmHg 20%
    14:00 +29°C° 0 mm 4 mps 732 mmHg 20%
    15:00 +28°C° 0 mm 4 mps 733 mmHg 23%
    16:00 +27°C° 0 mm 4 mps 733 mmHg 25%
    17:00 +26°C° 0 mm 4 mps 733 mmHg 28%
    18:00 +26°C° 0 mm 3 mps 733 mmHg 30%
    19:00 +25°C° 0 mm 3 mps 733 mmHg 32%
    20:00 +24°C° 0 mm 3 mps 734 mmHg 34%
    21:00 +22°C° 0 mm 3 mps 734 mmHg 34%
    22:00 +22°C° 0 mm 3 mps 734 mmHg 35%
    23:00 +21°C° 0 mm 3 mps 734 mmHg 35%

    Day after tomorrow, 23 November, Friday

    Time Temperature Precipitation Wind Pressure Humidity
    00:00 +21°C° 0 mm 3 mps 733 mmHg 36%
    01:00 +20°C° 0 mm 3 mps 733 mmHg 37%
    02:00 +20°C° 0 mm 3 mps 733 mmHg 38%
    03:00 +20°C° 0 mm 3 mps 733 mmHg 39%
    04:00 +19°C° 0 mm 3 mps 733 mmHg 40%
    05:00 +19°C° 0 mm 3 mps 733 mmHg 41%
    06:00 +20°C° 0 mm 3 mps 733 mmHg 40%
    07:00 +21°C° 0 mm 3 mps 734 mmHg 40%
    08:00 +22°C° 0 mm 3 mps 734 mmHg 39%
    09:00 +23°C° 0 mm 4 mps 734 mmHg 38%
    10:00 +25°C° 0 mm 4 mps 734 mmHg 36%
    11:00 +26°C° 0 mm 5 mps 734 mmHg 35%
    12:00 +26°C° 0 mm 6 mps 734 mmHg 33%
    13:00 +26°C° 0 mm 6 mps 734 mmHg 30%
    14:00 +27°C° 0 mm 7 mps 733 mmHg 28%
    15:00 +24°C° 0 mm 7 mps 733 mmHg 30%
    16:00 +23°C° 0 mm 7 mps 733 mmHg 33%
    17:00 +22°C° 0 mm 6 mps 733 mmHg 35%
    18:00 +21°C° 0 mm 6 mps 733 mmHg 40%
    19:00 +21°C° 0 mm 5 mps 734 mmHg 44%
    20:00 +20°C° 0 mm 4 mps 734 mmHg 48%
    21:00 +20°C° 0 mm 4 mps 734 mmHg 51%
    22:00 +19°C° 0 mm 4 mps 734 mmHg 53%
    23:00 +19°C° 0 mm 4 mps 734 mmHg 56%

    24 November, Saturday

    Time Temperature Precipitation Wind Pressure Humidity
    00:00 +18°C° 0 mm 3 mps 734 mmHg 58%
    01:00 +18°C° 0 mm 3 mps 734 mmHg 60%
    02:00 +18°C° 0 mm 3 mps 734 mmHg 63%
    03:00 +17°C° 0 mm 3 mps 734 mmHg 64%
    04:00 +17°C° 0 mm 3 mps 734 mmHg 66%
    05:00 +17°C° 0 mm 3 mps 734 mmHg 68%
    06:00 +17°C° 0 mm 3 mps 734 mmHg 65%
    07:00 +18°C° 0 mm 4 mps 735 mmHg 62%
    08:00 +18°C° 0 mm 4 mps 735 mmHg 59%
    09:00 +19°C° 0 mm 4 mps 735 mmHg 53%
    10:00 +21°C° 0 mm 4 mps 735 mmHg 47%
    11:00 +22°C° 0 mm 4 mps 735 mmHg 41%
    12:00 +22°C° 0 mm 4 mps 735 mmHg 40%
    13:00 +23°C° 0 mm 5 mps 735 mmHg 38%
    14:00 +23°C° 0 mm 5 mps 734 mmHg 36%
    15:00 +23°C° 0 mm 5 mps 735 mmHg 40%
    16:00 +22°C° 0 mm 5 mps 735 mmHg 44%
    17:00 +21°C° 0 mm 5 mps 735 mmHg 47%
    18:00 +20°C° 0 mm 5 mps 735 mmHg 51%
    19:00 +20°C° 0 mm 4 mps 736 mmHg 55%
    20:00 +19°C° 0 mm 4 mps 736 mmHg 58%
    21:00 +19°C° 0 mm 3 mps 736 mmHg 60%
    22:00 +18°C° 0 mm 3 mps 736 mmHg 61%
    23:00 +18°C° 0 mm 3 mps 737 mmHg 63%

    25 November, Sunday

    Time Temperature Precipitation Wind Pressure Humidity
    00:00 +17°C° 0 mm 3 mps 736 mmHg 64%
    01:00 +17°C° 0 mm 3 mps 736 mmHg 65%
    02:00 +17°C° 0 mm 2 mps 736 mmHg 66%
    03:00 +17°C° 0 mm 2 mps 736 mmHg 67%
    04:00 +16°C° 0 mm 3 mps 736 mmHg 68%
    05:00 +16°C° 0 mm 3 mps 736 mmHg 68%
    06:00 +17°C° 0 mm 3 mps 736 mmHg 66%
    07:00 +18°C° 0 mm 3 mps 737 mmHg 64%
    08:00 +18°C° 0 mm 3 mps 737 mmHg 61%
    09:00 +20°C° 0 mm 3 mps 737 mmHg 55%
    10:00 +21°C° 0 mm 3 mps 737 mmHg 50%
    11:00 +22°C° 0 mm 3 mps 737 mmHg 44%
    12:00 +22°C° 0 mm 3 mps 736 mmHg 41%
    13:00 +24°C° 0 mm 3 mps 736 mmHg 38%
    14:00 +25°C° 0 mm 3 mps 735 mmHg 35%
    15:00 +24°C° 0 mm 3 mps 735 mmHg 38%
    16:00 +22°C° 0 mm 3 mps 735 mmHg 41%
    17:00 +21°C° 0 mm 3 mps 736 mmHg 43%
    18:00 +21°C° 0 mm 3 mps 736 mmHg 46%
    19:00 +20°C° 0 mm 3 mps 736 mmHg 49%
    20:00 +20°C° 0 mm 3 mps 736 mmHg 52%
    21:00 +19°C° 0 mm 2 mps 736 mmHg 53%
    22:00 +19°C° 0 mm 2 mps 736 mmHg 54%
    23:00 +19°C° 0 mm 2 mps 735 mmHg 55%

    26 November, Monday

    Time Temperature Precipitation Wind Pressure Humidity
    00:00 +18°C° 0 mm 2 mps 735 mmHg 56%
    01:00 +18°C° 0 mm 2 mps 735 mmHg 57%
    02:00 +17°C° 0 mm 2 mps 735 mmHg 58%
    03:00 +17°C° 0 mm 2 mps 735 mmHg 60%
    04:00 +17°C° 0 mm 2 mps 735 mmHg 62%
    05:00 +16°C° 0 mm 2 mps 735 mmHg 64%
    06:00 +17°C° 0 mm 2 mps 735 mmHg 62%
    07:00 +18°C° 0 mm 2 mps 735 mmHg 60%
    08:00 +19°C° 0 mm 2 mps 736 mmHg 58%
    09:00 +20°C° 0 mm 2 mps 735 mmHg 52%
    10:00 +21°C° 0 mm 2 mps 735 mmHg 46%
    11:00 +24°C° 0 mm 2 mps 735 mmHg 39%
    12:00 +24°C° 0 mm 2 mps 734 mmHg 37%
    13:00 +25°C° 0 mm 2 mps 734 mmHg 34%
    14:00 +25°C° 0 mm 2 mps 733 mmHg 31%
    15:00 +25°C° 0 mm 2 mps 733 mmHg 35%
    16:00 +24°C° 0 mm 2 mps 733 mmHg 38%
    17:00 +23°C° 0 mm 2 mps 733 mmHg 41%
    18:00 +23°C° 0 mm 2 mps 734 mmHg 44%
    19:00 +21°C° 0 mm 2 mps 734 mmHg 47%
    20:00 +21°C° 0 mm 2 mps 734 mmHg 51%
    21:00 +20°C° 0 mm 2 mps 734 mmHg 52%
    22:00 +20°C° 0 mm 2 mps 734 mmHg 53%
    23:00 +20°C° 0 mm 2 mps 734 mmHg 54%
    Show more